Terminal Aerodrome Forecast
Issued by NWS

Home | Current Version | Previous Version | Graphics & Text | Print | Product List | Glossary On
Versions: 1 2 3 4 5 6 7 8 9 10 11 12 13
000
FTUS43 KBIS 142300
TAFDIK
TAF
KDIK 142323Z 1500/1524 VRB03KT P6SM BKN080
     FM150300 VRB03KT P6SM FEW070
     FM151400 22006KT P6SM FEW230=

USA.gov is the U.S. government's official web portal to all federal, state and local government web resources and services.